016  
ASUS42 KTBW 132019  
RWRFL  
FLORIDA REGIONAL WEATHER ROUNDUP  
NATIONAL WEATHER SERVICE TAMPA BAY RUSKIN FL  
400 PM EDT THU AUG 13 2020  
 
NOTE: "FAIR" INDICATES FEW OR NO CLOUDS BELOW 12,000 FEET WITH NO  
SIGNIFICANT WEATHER AND/OR S TO VISIBILITY
.  
 
FLZ001>010-012>015-112-114-115-132100-  
PANHANDLE FLORIDA  
 
CITY SKY/WX TMP DP RH WIND PRES REMARKS
 
PENSACOLA N/A N/A N/A N/A MISG N/A  
PENSACOLA NAS PTSUNNY 90 76 63 S13 29.94F HX 101  
MILTON NAS PTSUNNY 90 77 65 S13 29.94F THUNDER HX 103  
CRESTVIEW PTSUNNY 81 74 79 VRB5 29.98S  
DUKE FIELD MOSUNNY 75 72 88 SW9 29.97F THUNDER  
VALPARAISO DRIZZLE 77 72 83 CALM 29.96F  
MARY ESTHER LGT RAIN 80 71 75 N9 29.97R  
PANAMA CITY FAIR 87 80 79 S9 29.96F HX 103  
TYNDALL AFB MOSUNNY 85 76 75 S9 29.97F  
APALACHICOLA MOSUNNY 90 75 61 SW12 29.99F HX 100  
 
STATION/POSITION SKY/WX TEMP WIND PRES WAVE SWELL
 
AIR SEA DIR/SP/G HT/PER HT/PER  
(F) (DEG/KT/KT) (MB) (FT/S) (FT/S)  
30.1N 87.6W 85 88 160/ 8/ 10 1014.5F 1  
29.2N 88.2W 86 180/ 6/ 10 1015.0F 1  
28.8N 86.0W 150/ 8/ 8 1015.3  
PANAMA CITY BEAC 84 87 180/ 8/ 13 1015.9  
TOWER C 80 200/ 9/ 10 1016.1F  
28.5N 84.5W 330/ 8/ 10 1016.8F  
 

 
FLZ011-016>038-118-127-128-134-139-239-132100-  
NORTH FLORIDA  
 
CITY SKY/WX TMP DP RH WIND PRES REMARKS
 
MARIANNA PTSUNNY 88 74 63 SW10 29.94F HX 96  
TALLAHASSEE PTSUNNY 92 74 55 S8 29.96F HX 101  
LIVE OAK CLOUDY 77 77 100 CALM 30.00R THUNDER VSB 1/2  
CROSS CITY PTSUNNY 84 75 74 NE6 29.99S  
LAKE CITY FAIR 84 70 61 SW7 30.00F  
GAINESVILLE LGT RAIN 84 75 74 N13 30.00F  
MAYPORT NAS MOSUNNY 88 77 69 S24G32 29.97F HX 100  
JACKSONVILLE PTSUNNY 92 74 55 S10 29.94F HX 101  
JAX NAS PTSUNNY 90 73 57 S10 29.96F HX 98  
JAX CECIL PTSUNNY 93 75 55 VRB5 29.97F HX 104  
FERNANDINA BEA FAIR 89 81 77 SE16G22 29.96F HX 108  
ST AUGUSTINE MOSUNNY 85 73 67 SE13 29.99F  
PALM COAST MOSUNNY 72 72 100 CALM 30.01F  
 
STATION/POSITION SKY/WX TEMP WIND PRES WAVE SWELL
 
AIR SEA DIR/SP/G HT/PER HT/PER  
(F) (DEG/KT/KT) (MB) (FT/S) (FT/S)  
SHELL POINT NOT AVBL  
KEATON BEACH 85 230/ 8/ 9 1015.7F  
CEDAR KEY 88 250/ 5/ 7 1016.0F  
FERNANDINA 92 85 150/ 12/ 18 1015.1F  
30.7N 81.3W 84 85 N/A 2/10  
MAYPORT 85 85 140/ 11/ 15 1015.7F  
31.4N 80.9W 84 86 190/ 16/ 19 1014.1F 2/ 4  
ST AUGUSTINE 79 85 170/ 11/ 13 1015.9F  
 

 
FLZ040-043>046-052-053-057-058-063-144-132100-  
INTERIOR CENTRAL FLORIDA  
 
CITY SKY/WX TMP DP RH WIND PRES REMARKS
 
OCALA CLOUDY 84 75 74 SE16 30.00F  
LEESBURG CLOUDY 75 73 93 NW6 30.01F  
SANFORD CLOUDY 80 71 74 NE12 30.02S  
ORLANDO EXEC PTSUNNY 91 71 51 N15G22 30.00S HX 97  
ORLANDO INTL PTSUNNY 91 72 53 CALM 29.99F HX 98  
KISSIMMEE MOSUNNY 90 75 61 W7 30.00F HX 100  
WINTER HAVEN MOSUNNY 94 72 48 VRB3 29.99F HX 102  
LAKELAND PTSUNNY 91 73 55 SW5 29.99F HX 100  
BARTOW MOSUNNY 93 73 52 VRB5 29.97F HX 102  
SEBRING FAIR 94 74 51 E6 29.98F HX 103  
OKEECHOBEE MOSUNNY 90 72 55 SE7 29.98F HX 96  
 

 
FLZ041-047-054-059-064-141-147-132100-  
EAST CENTRAL FLORIDA  
 
CITY SKY/WX TMP DP RH WIND PRES REMARKS
 
ORMOND BEACH LGT RAIN N/A N/A N/A CALM 30.02F FOG  
DAYTONA BEACH CLOUDY 76 75 97 NE5 30.01F THUNDER  
DELAND CLOUDY 76 73 91 E6 30.02F  
NEW SMYRNA BEA PTSUNNY N/A N/A N/A MISG N/A  
JFK SPACE CTR CLOUDY 88 77 71 E7 29.99F HX 100  
TITUSVILLE PTSUNNY 95 73 49 SE8 30.02R HX 105  
CAPE CANAVERAL MOSUNNY 91 77 63 SE10 29.99F HX 103  
PATRICK AFB MOSUNNY 90 76 63 NE13 29.99F HX 101  
MELBOURNE MOSUNNY 88 77 69 E12 29.99S HX 100  
VERO BEACH MOSUNNY 90 75 61 SE14 29.99F HX 100  
FT PIERCE MOSUNNY 89 78 70 E12 29.98F HX 103  
STUART MOSUNNY 90 75 62 E10 30.01F HX 100  
 
STATION/POSITION SKY/WX TEMP WIND PRES WAVE SWELL
 
AIR SEA DIR/SP/G HT/PER HT/PER  
(F) (DEG/KT/KT) (MB) (FT/S) (FT/S)  
28.5N 80.2W 85 87 130/ 6/ 8 1015.7F 2/ 3 2/ 9  
28.9N 78.5W 85 180/ 4/ 4 1017.3F 2/ 6 2/ 6  
TRIDENT PIER 90 88 100/ 9/ 11 1016.7F  
28.4N 80.5W 87 N/A 1/ 3  
27.5N 80.2W 87 N/A 2/ 9  
 

 
FLZ050-056-061-142-242-148-248-149-249-151-251-155-255-  
160-260-132100-  
WEST CENTRAL FLORIDA  
 
CITY SKY/WX TMP DP RH WIND PRES REMARKS
 
CRYSTAL RIVER PTSUNNY 91 72 52 W3 29.99F HX 98  
INVERNESS FAIR 91 75 59 SE3 29.99F HX 102  
BROOKSVILLE CLOUDY 89 75 63 VRB3 30.00F HX 99  
CLEARWATER AIR PTSUNNY 90 73 58 W6 29.99S HX 98  
ST PETE CLEARW PTSUNNY 90 77 65 N8 29.98F THUNDER HX 103  
TAMPA INTL PTSUNNY 93 71 48 W9 29.98F THUNDER HX 100  
TAMPA EXEC PTSUNNY 91 77 62 S5 29.99S HX 105  
PLANT CITY MOSUNNY 91 79 66 W5 30.01F HX 107  
MACDILL AFB MOSUNNY 92 75 56 SW5 29.98F HX 103  
PETER O KNIGHT PTSUNNY 95 79 59 SW3 29.98F HX 112  
ST PETERSBURG MOSUNNY 91 76 61 S9 29.97F HX 103  
SARASOTA MOSUNNY 90 76 63 W8 29.97F HX 101  
VENICE FAIR 90 79 70 W9 29.98F HX 105  
 
STATION/POSITION SKY/WX TEMP WIND PRES WAVE SWELL
 
AIR SEA DIR/SP/G HT/PER HT/PER  
(F) (DEG/KT/KT) (MB) (FT/S) (FT/S)  
27.3N 84.3W 87 N/A 1/ 3  
CLEARWATER BEACH 87 92 250/ 7/ 9 1016.0  
MIDDLE TAMPA BAY 88 240/ 7/ 8 1015.7  
VENICE 87 90 240/ 13/ 14 1015.2F  
 

 
FLZ066-069-070-075>078-162-262-165-265-132100-  
SOUTHWEST FLORIDA AND KEYS  
 
CITY SKY/WX TMP DP RH WIND PRES REMARKS
 
PUNTA GORDA MOSUNNY 93 75 55 W7 29.97F HX 104  
FT MYERS PTSUNNY 90 77 65 W15 29.95F HX 103  
SOUTHWEST INTL PTSUNNY 91 79 67 SW12 29.95F HX 107  
NAPLES MOSUNNY 89 78 70 MISG 29.96F HX 103  
MARCO ISLAND CLOUDY 91 79 67 W12 29.97F HX 107  
IMMOKALEE FAIR 93 75 55 E8 29.96F HX 104  
MARATHON SUNNY 91 78 65 E9 29.95F HX 106  
KEY WEST NAS MOSUNNY 93 77 59 E12 29.96F HX 107  
KEY WEST INTL MOSUNNY 91 77 63 E12 29.97F HX 104  
 
STATION/POSITION SKY/WX TEMP WIND PRES WAVE SWELL
 
AIR SEA DIR/SP/G HT/PER HT/PER  
(F) (DEG/KT/KT) (MB) (FT/S) (FT/S)  
NAPLES 90 90 260/ 6/ 9 1016.0  
26.0N 85.6W 87 40/ 4/ 6 1015.3F 2/ 4 2/ 4  
DRY TORTUGAS NOT AVBL  
SAND KEY 85 110/ 12/ 13 1015.2F  
SOMBRERO KEY 85 100/ 14/ 16 N/A  
LONG KEY 85 90/ 12/ 15 1014.8  
 

 
FLZ067-068-071>074-168-172>174-132100-  
SOUTHEAST FLORIDA  
 
CITY SKY/WX TMP DP RH WIND PRES REMARKS
 
W PALM BEACH MOSUNNY 90 77 65 SE15 29.99F HX 103  
BOCA RATON MOSUNNY 91 77 62 SE12 29.98F HX 105  
FT LAUDER-EXEC MOSUNNY 91 72 53 E13 29.98F HX 98  
FT LAUDERDALE PTSUNNY 90 78 68 E12 29.97F HX 104  
POMPANO BEACH MOSUNNY N/A N/A N/A E13 29.98F  
PEMBROKE PINES MOSUNNY 92 75 57 E13 29.99F HX 103  
OPA LOCKA MOSUNNY 91 74 57 SE10 29.98F HX 100  
MIAMI PTSUNNY 91 74 57 E8G18 29.98F HX 100  
WEST KENDALL MOSUNNY 92 76 59 SE10 29.97F HX 104  
HOMESTEAD SUNNY 90 75 62 E10 30.03R HX 100  
 
STATION/POSITION SKY/WX TEMP WIND PRES WAVE SWELL
 
AIR SEA DIR/SP/G HT/PER HT/PER  
(F) (DEG/KT/KT) (MB) (FT/S) (FT/S)  
VIRGINIA KEY 87 92 90/ 7/ 9 1016.1F  
LAKE WORTH 85 88 120/ 10/ 11 1015.2F  
FOWEY ROCKS 85 86 120/ 7/ 8 1015.4F  
SETTLEMENT POINT 86 CALM / 1 1016.1F  
 

 
 
 
 
CLICK HERE TO GO TO PREVIOUS BULLETINS.

The Nexlab FL Page Main Text Page